OSCAR 7 1 07530U 74089B 26035.28124144 -.00000050 00000-0 -25436-4 0 9996 2 07530 101.9970 47.1129 0012289 26.0559 42.8268 12.53695606343864 OSCAR 11 (UOSAT 2) 1 14781U 84021B 26035.17292284 .00002166 00000-0 22818-3 0 9996 2 14781 97.7892 2.4024 0006035 263.3717 96.6814 14.90374650237319 OSCAR 19 (LUSAT) 1 20442U 90005G 26035.27056222 .00000183 00000-0 82174-4 0 9996 2 20442 98.8950 53.3505 0010737 232.7679 127.2525 14.34073279883348 EYESAT A 1 22825U 93061C 26035.14276677 .00000140 00000-0 70292-4 0 9993 2 22825 98.7054 102.5152 0009285 127.0285 233.1748 14.30901115687979 ITAMSAT 1 22826U 93061D 26035.16165029 .00000165 00000-0 79262-4 0 9997 2 22826 98.7002 102.4384 0009950 112.4744 247.7493 14.31324255688284 RADIO ROSTO 1 23439U 94085A 26035.34843245 -.00000110 00000-0 -19118-2 0 9992 2 23439 64.8156 158.0532 0151486 28.3785 332.5287 11.27583346280926 JAS 2 1 24278U 96046B 26035.22916246 -.00000003 00000-0 29638-4 0 9992 2 24278 98.5425 262.1680 0350876 81.4246 282.6480 13.53266457455182 TECHSAT 1B 1 25397U 98043D 26035.23352311 .00000104 00000-0 65047-4 0 9997 2 25397 98.9981 24.6976 0000632 186.9028 173.2142 14.24396132432409 ISS (ZARYA) 1 25544U 98067A 26035.01771291 .00010297 00000-0 19874-3 0 9995 2 25544 51.6311 238.8105 0011108 61.9619 298.2491 15.48378125551111 PCSAT 1 26931U 01043C 26035.24085746 .00000189 00000-0 10169-3 0 9999 2 26931 67.0488 228.1177 0007050 266.5609 93.4686 14.31892110271411 SAUDISAT 1C 1 27607U 02058C 26034.82620247 .00002026 00000-0 25731-3 0 9994 2 27607 64.5527 181.4894 0074250 286.8165 72.4806 14.82641388244688 CUTE-1 1 27844U 03031E 26034.98326989 .00000393 00000-0 18920-3 0 9999 2 27844 98.6772 45.2037 0009075 206.7176 153.3536 14.24236363172715 CUBESAT XI 4 1 27848U 03031J 26034.97578610 .00000324 00000-0 16177-3 0 9998 2 27848 98.6802 45.0160 0008672 226.1677 133.8785 14.23535876172429 MOZHAYETS 4 1 27939U 03042A 26035.31563749 .00001300 00000-0 20981-3 0 9990 2 27939 98.3392 215.9561 0010925 335.7396 146.0826 14.73152720195989 CUBESAT XI 5 1 28895U 05043F 26035.14140424 .00002317 00000-0 37568-3 0 9995 2 28895 98.2773 188.1479 0013156 267.2439 92.7262 14.72162245 82177 CUTE-1.7+APD 2 1 32785U 08021C 26035.20699915 .00007618 00000-0 50040-3 0 9997 2 32785 97.8161 14.1057 0010926 115.6381 244.5976 15.07866208965145 SEEDS 1 32791U 08021J 26034.48164572 .00019703 00000-0 73306-3 0 9997 2 32791 97.7483 26.5409 0005531 74.4728 285.7120 15.27531158966840 YUBELEINY 1 32953U 08025A 26035.22878255 .00000020 00000-0 71070-4 0 9993 2 32953 82.4995 78.1506 0018461 239.5406 120.3851 12.43174583803174 KKS-1 (KISEKI) 1 33499U 09002H 26035.19584503 .00002353 00000-0 29847-3 0 9996 2 33499 98.1192 315.5854 0008234 11.9746 348.1661 14.82689037916481 SWISSCUBE 1 35932U 09051B 26035.28888131 .00001585 00000-0 32475-3 0 9995 2 35932 98.4132 300.8347 0005534 268.2904 91.7663 14.62159005869732 BEESAT 1 35933U 09051C 26035.29967547 .00001332 00000-0 27886-3 0 9996 2 35933 98.4060 300.7526 0004118 286.4485 73.6262 14.61448160869774 ITUPSAT 1 1 35935U 09051E 26035.31212924 .00001226 00000-0 26448-3 0 9998 2 35935 98.4150 300.0929 0006397 296.8936 63.1609 14.60189859869341 XIWANG-1 (HOPE-1) 1 36122U 09072B 26035.32126472 -.00000063 00000-0 -50301-4 0 9999 2 36122 100.3859 351.3808 0007441 172.8961 187.2259 13.16433860775525 TISAT 1 1 36799U 10035E 26034.28308263 .00023417 00000-0 91366-3 0 9995 2 36799 98.0632 329.6421 0003571 41.7763 318.3746 15.25928911847245 JUGNU 1 37839U 11058B 26035.18517245 .00000508 00000-0 12586-3 0 9992 2 37839 19.9621 36.4340 0018740 48.1569 32.2845 14.13725490740183 SRMSAT 1 37841U 11058D 26034.70280699 .00000463 00000-0 10722-3 0 9992 2 37841 19.9708 147.4047 0011632 174.9069 332.8041 14.11534324738934 HORYU 2 1 38340U 12025D 26035.32659347 .00004557 00000-0 47812-3 0 9999 2 38340 98.1976 163.0872 0007408 254.6327 105.4071 14.90033186728937 STRAND 1 1 39090U 13009E 26035.28319304 .00000447 00000-0 16499-3 0 9997 2 39090 98.3854 218.8110 0007579 268.1783 91.8536 14.37063364677979 CUBEBUG 1 1 39153U 13018D 26034.87139948 .00004996 00000-0 44778-3 0 9999 2 39153 98.1464 189.1068 0011292 227.7478 132.2785 14.96230518691126 ZACUBE 1 39417U 13066B 26035.11191732 .00008641 00000-0 68931-3 0 9990 2 39417 97.8168 356.7789 0041137 335.9522 23.9779 14.99884796660773 TRITON 1 1 39427U 13066M 26035.29682889 .00004831 00000-0 58886-3 0 9993 2 39427 97.8317 308.1575 0090103 308.0607 51.2500 14.80967159654411 GOMX 1 1 39430U 13066Q 26035.31289793 .00001854 00000-0 28575-3 0 9991 2 39430 97.6573 244.0970 0130354 143.7024 217.3113 14.68944138650402 HUMSAT D 1 39433U 13066T 26034.52533692 .00266120 00000-0 17579-2 0 9996 2 39433 97.4952 44.4472 0003028 51.8981 308.2556 15.74815520666049 CUBEBUG 2 1 39440U 13066AA 26035.31566821 .00005059 00000-0 48062-3 0 9996 2 39440 97.8773 343.9596 0060589 107.2536 253.5326 14.92546667657165 FUNCUBE 1 1 39444U 13066AE 26035.18871121 .00012606 00000-0 82803-3 0 9994 2 39444 97.8138 4.1893 0036322 297.6255 62.1286 15.07217658659613 UWE-3 1 39446U 13066AG 26034.41607620 .00007104 00000-0 62611-3 0 9994 2 39446 97.8548 349.8405 0051786 47.1426 313.4128 14.95717049657572 UNISAT 6 1 40012U 14033C 26035.30827713 .00005570 00000-0 61042-3 0 9998 2 40012 97.7667 190.5814 0046473 145.3883 215.0374 14.87346979626403 DUCHIFAT 1 1 40021U 14033M 26035.08105535 .00051429 00000-0 10541-2 0 9995 2 40021 98.0701 77.6488 0005986 182.5830 177.5388 15.45889864635077 QB50P1 1 40025U 14033R 26035.24864139 .00011035 00000-0 58170-3 0 9999 2 40025 98.0993 37.2980 0008027 332.7476 27.3333 15.15747295632872 OBJECT G 1 40905U 15049G 26035.27111912 .00033451 00000-0 46679-3 0 9998 2 40905 97.4774 72.1986 0005847 4.3362 355.7942 15.56807780575709 LILACSAT 2 1 40908U 15049K 26035.34005689 .00018508 00000-0 37094-3 0 9999 2 40908 97.4852 67.4308 0008238 28.0235 332.1457 15.46740973575184 LQSAT 1 40958U 15057A 26035.25925339 .00001099 00000-0 16414-3 0 9996 2 40958 97.6629 35.2746 0016888 349.3908 10.6944 14.76569783555691 CHUBUSAT 2 1 41338U 16012B 26035.24675479 .00008248 00000-0 37596-3 0 9994 2 41338 30.9981 112.8068 0009380 160.3979 199.7024 15.19233429548178 CHUBUSAT 3 1 41339U 16012C 26035.31178353 .00007709 00000-0 37244-3 0 9993 2 41339 31.0053 118.9693 0009744 153.7417 206.3719 15.17201234547991 PRATHAM 1 41783U 16059A 26034.42903211 .00001050 00000-0 19460-3 0 9990 2 41783 97.8294 37.2074 0029955 285.5615 74.2284 14.66967940499909 ALSAT 1N 1 41789U 16059G 26035.30846968 .00001390 00000-0 24398-3 0 9992 2 41789 97.8019 44.5936 0024591 252.2898 107.5624 14.69034131500498